Location: Prairie Dale
(45.6972°N, 104.5033°W)
Time: 16:38:55
(UTC+00:00)

STARS - Pass Details

Date: 05 July 2022
Orbit: 620 x 637 km, 98.2° (Epoch: 18 August)

Event Time Altitude Azimuth Distance (km) Brightness Sun altitude
Rises 06:05:43 0° 9° (N) 2,931 ? -20.3°
Reaches altitude 10° 06:07:57 10° 6° (N) 2,016 ? -20.4°
Maximum altitude 06:12:15 57° 288° (WNW) 739 ? -20.6°
Enters shadow 06:13:52 35° 226° (SW) 1,023 ? -20.6°
